Boston Weather Center

Moon Phase Calendar



Online Cameras

 


      

Current Conditions in Winthrop
6/17/2021 2:38:39 PM

77°F
Feels Like 76
Clouds
Humidity
32%
Pressure
29.88"
Wind
3 mph (NNW)
Dew Point
45°F
UV Index
5/10 (Moderate)
Visibility
6 mi

Hourly Forecast

Date & Time Thu, Jun 17
2:00 PM
Thu, Jun 17
3:00 PM
Thu, Jun 17
4:00 PM
Thu, Jun 17
5:00 PM
Thu, Jun 17
6:00 PM
Thu, Jun 17
7:00 PM
Thu, Jun 17
8:00 PM
Thu, Jun 17
9:00 PM
Thu, Jun 17
10:00 PM
Thu, Jun 17
11:00 PM
Fri, Jun 18
12:00 AM
Fri, Jun 18
1:00 AM
Fri, Jun 18
2:00 AM
Fri, Jun 18
3:00 AM
Fri, Jun 18
4:00 AM
Fri, Jun 18
5:00 AM
Fri, Jun 18
6:00 AM
Fri, Jun 18
7:00 AM
Fri, Jun 18
8:00 AM
Fri, Jun 18
9:00 AM
Fri, Jun 18
10:00 AM
Fri, Jun 18
11:00 AM
Fri, Jun 18
12:00 PM
Fri, Jun 18
1:00 PM
Fri, Jun 18
2:00 PM
Fri, Jun 18
3:00 PM
Fri, Jun 18
4:00 PM
Fri, Jun 18
5:00 PM
Fri, Jun 18
6:00 PM
Fri, Jun 18
7:00 PM
Fri, Jun 18
8:00 PM
Fri, Jun 18
9:00 PM
Fri, Jun 18
10:00 PM
Fri, Jun 18
11:00 PM
Sat, Jun 19
12:00 AM
Sat, Jun 19
1:00 AM
Sat, Jun 19
2:00 AM
Sat, Jun 19
3:00 AM
Sat, Jun 19
4:00 AM
Sat, Jun 19
5:00 AM
Sat, Jun 19
6:00 AM
Sat, Jun 19
7:00 AM
Sat, Jun 19
8:00 AM
Sat, Jun 19
9:00 AM
Sat, Jun 19
10:00 AM
Sat, Jun 19
11:00 AM
Sat, Jun 19
12:00 PM
Sat, Jun 19
1:00 PM
Condition
Clouds

Clouds

Clouds

Clouds

Clouds

Clouds

Clouds

Clear

Clear

Clear

Clear

Clear

Clear

Clear

Clear

Clear

Clear

Clouds

Clouds

Clouds

Clouds

Clouds

Clouds

Clouds

Clouds

Clouds

Clouds

Clouds

Clouds

Clouds

Clouds

Clouds

Clouds

Clouds

Clouds

Clouds

Clouds

Clouds

Clouds

Clouds

Clouds

Clouds

Clouds

Clouds

Clouds

Clouds

Clouds

Rain
Temperature 76°F77°F77°F76°F76°F72°F67°F63°F61°F60°F60°F59°F58°F58°F57°F56°F57°F61°F65°F70°F73°F76°F78°F79°F81°F81°F78°F77°F77°F74°F71°F69°F68°F68°F67°F65°F65°F64°F65°F64°F65°F67°F69°F72°F75°F78°F80°F81°F
Feels Like 75°F76°F75°F75°F74°F72°F66°F62°F60°F59°F58°F57°F57°F56°F55°F54°F55°F59°F64°F68°F72°F75°F77°F79°F79°F80°F77°F77°F76°F73°F70°F68°F67°F67°F66°F65°F64°F63°F65°F64°F65°F67°F69°F72°F75°F78°F80°F83°F
Cloudiness 16%20%17%16%15%14%11%5%6%5%5%5%4%5%4%3%6%12%18%32%30%22%31%45%46%44%72%81%86%89%91%100%100%100%100%92%91%100%100%100%100%100%100%100%100%100%100%100%
Visibility 6 mi6 mi6 mi6 mi6 mi6 mi6 mi6 mi6 mi6 mi6 mi6 mi6 mi6 mi6 mi6 mi6 mi6 mi6 mi6 mi6 mi6 mi6 mi6 mi6 mi6 mi6 mi6 mi6 mi6 mi6 mi6 mi6 mi6 mi6 mi6 mi6 mi6 mi6 mi6 mi6 mi6 mi6 mi6 mi6 mi6 mi6 mi6 mi
Precipitation 0%0%0%0%0%0%0%0%0%0%0%0%0%0%0%0%0%0%0%0%0%0%0%0%0%0%0%0%0%0%0%0%0%0%0%0%0%0%0%0%0%0%0%0%0%0%0%24%
Humidity 32%32%32%33%35%48%58%63%66%66%64%64%64%64%63%63%61%56%50%43%37%33%30%29%28%26%32%37%40%47%53%59%60%58%60%67%72%76%76%82%79%74%72%67%62%59%55%54%
Dew Point 44°F45°F45°F45°F46°F52°F51°F50°F50°F49°F47°F46°F46°F45°F44°F43°F43°F44°F46°F46°F45°F45°F44°F44°F43°F42°F45°F48°F51°F52°F52°F53°F53°F52°F52°F53°F55°F56°F57°F58°F58°F58°F59°F60°F61°F62°F62°F62°F
Pressure 29.88"29.88"29.88"29.88"29.88"29.88"29.91"29.94"29.94"29.97"29.97"29.97"29.97"30"30"30"30"30"30"30"30"29.97"29.97"29.94"29.91"29.91"29.88"29.88"29.85"29.88"29.88"29.91"29.91"29.91"29.88"29.85"29.85"29.85"29.85"29.85"29.83"29.83"29.8"29.8"29.77"29.77"29.74"29.71"
Wind Speed 4.6 mph3.7 mph3.1 mph2.6 mph2.1 mph1.9 mph4.6 mph5.1 mph4.8 mph5.7 mph5.4 mph5.6 mph5.4 mph5.2 mph5.4 mph5.6 mph4.4 mph4.5 mph5.6 mph6.1 mph6.8 mph7.2 mph7.4 mph7.5 mph7.8 mph8.7 mph8.1 mph4.4 mph7.4 mph9.6 mph9.6 mph9.4 mph8.7 mph8.4 mph8.9 mph9.2 mph10 mph9.3 mph10 mph9 mph9.2 mph10 mph10.7 mph11.6 mph10.1 mph9.9 mph11 mph12.5 mph
Wind
Direction
282°
WNW
265°
W
243°
WSW
244°
WSW
275°
W
207°
SSW
200°
SSW
214°
SW
230°
SW
249°
WSW
268°
W
279°
W
274°
W
264°
W
246°
WSW
247°
WSW
252°
WSW
235°
SW
251°
WSW
242°
WSW
234°
SW
231°
SW
224°
SW
220°
SW
227°
SW
236°
SW
247°
WSW
212°
SSW
201°
SSW
215°
SW
219°
SW
214°
SW
207°
SSW
206°
SSW
203°
SSW
206°
SSW
208°
SSW
213°
SSW
211°
SSW
200°
SSW
196°
SSW
197°
SSW
199°
SSW
207°
SSW
210°
SSW
212°
SSW
201°
SSW
207°
SSW

Daily Forecast

Date High Low Precip. Humidity
Today
Jun 17

Clear
77 °F
55 °F
0%
34%
Friday
Jun 18

Clouds
81 °F
56 °F
0%
30%
Saturday
Jun 19

Rain
81 °F
64 °F
91%
59%
Sunday
Jun 20

Clear
85 °F
63 °F
85%
44%
Monday
Jun 21

Clouds
87 °F
66 °F
0%
52%
Tuesday
Jun 22

Rain
78 °F
62 °F
85%
75%
Wednesday
Jun 23

Clouds
74 °F
56 °F
12%
35%
Thursday
Jun 24

Clouds
70 °F
55 °F
0%
42%
Friday
Jun 25

Rain
74 °F
56 °F
81%
66%
Saturday
Jun 26

Clouds
78 °F
56 °F
18%
38%
Sunday
Jun 27

Rain
79 °F
59 °F
39%
56%
Monday
Jun 28

Rain
86 °F
66 °F
100%
87%
Tuesday
Jun 29

Rain
98 °F
72 °F
48%
43%
Wednesday
Jun 30

Rain
98 °F
76 °F
32%
43%
Thursday
Jul 1

Rain
88 °F
67 °F
97%
34%
Friday
Jul 2

Rain
88 °F
70 °F
100%
46%

Temperature 8-14 Day Outlook



Precipitation 8-14 Day Outlook




Quick Links
Boston News
Boston Photos
Boston Videos




About Us
Contact Us
Site Map
Search Site
Advertise With Us
   
Boston.USCoast.info
THE BOSTON WEBSITE

Copyright 2021, Coastal Town
Privacy    |    Legal